User: anonymous   Login
Location: Unspecified
(0.0000°N, 0.0000°E)
Time: 20:42:58
(UTC+00:00)
Language:

MUOS 3 - Orbit

View from above orbital plane
View from above orbital plane
View from above satellite
View from above satellite

Ground track
Ground track

The orbit data is extracted from the following two-line orbital elements,

1 40374U 15002A   21136.68695257 -.00000122  00000-0  00000-0 0  9993
2 40374   2.5957 357.6396 0053308 176.0527 292.7145  1.00270658 22962
Epoch (UTC): 16 May 2021 16:29:12
Eccentricity: 0.0053308
inclination: 2.5957°
perigee height: 35562 km
apogee height: 36011 km
right ascension of ascending node: 357.6396°
argument of perigee: 176.0527°
revolutions per day: 1.00270658
mean anomaly at epoch: 292.7145°
orbit number at epoch: 2296

The dashed part of the orbit path shows where the satellite is in the earth's shadow,  

DLR